Altoona, PA

5:58 AM EST on December 17, 2017 (GMT -0500)
Altoona-Blair County

Weather History for KAOO - December, 2013

Change the Weather History Date:

Thursday, December 19, 2013

  Actual Average Record
Temperature  
Mean Temperature 37 °F 29 °F  
Max Temperature 49 °F 36 °F 57 °F (1957)
Min Temperature 24 °F 22 °F 2 °F (1963)
Degree Days  
Heating Degree Days 28 36  
Month to date heating degree days 616 623  
Since 1 July heating degree days 1926 1933  
Cooling Degree Days 0 0  
Month to date cooling degree days 0 0  
Year to date cooling degree days 695 522  
Moisture  
Dew Point 26 °F    
Average Humidity 60    
Maximum Humidity 70    
Minimum Humidity 49    
Precipitation  
Precipitation 0.00 in 0.07 in 1.31 in (2008)
Month to date precipitation 1.40 1.60  
Year to date precipitation 28.69 31.81  
Sea Level Pressure  
Sea Level Pressure 30.09 in    
Wind  
Wind Speed 10 mph (SW)    
Max Wind Speed 22 mph    
Max Gust Speed 27 mph    
Visibility 10 miles    
Events      
T = Trace of Precipitation, MM = Missing Value Source: NWS Daily Summary

Daily Weather History Graph

Daily Weather History Graph

Search for Another Location

Airport or City:

Trip Planner

Search our weather history database for the weather conditions in past years. The results will help you decide how hot, cold, wet, or windy it might be!

Date:

Astronomy

Dec. 19, 2013 Rise Set
Actual Time 7:31 AM EST 4:49 PM EST
Civil Twilight 7:00 AM EST 5:20 PM EST
Nautical Twilight 6:26 AM EST 5:54 PM EST
Astronomical Twilight 5:53 AM EST 6:27 PM EST
Moon 7:13 PM EST (12/19) 8:48 AM EST (12/19)
Length of Visible Light 10h 19m
Length of Day
9h 17m
Waning Gibbous, 95% of the Moon is Illuminated
Dec 19
Waning Gibbous
Dec 25
Last Quarter
Jan 1
New
Jan 7
First Quarter
Jan 15
Full

Hourly Weather History & Observations

Time (EST) Temp. Windchill Dew Point Humidity Pressure Visibility Wind Dir Wind Speed Gust Speed Precip Events Conditions
12:53 AM 26.1 °F 16.8 °F 17.1 °F 69% 30.12 in 10.0 mi SSW 9.2 mph - N/A   Clear
1:53 AM 26.1 °F 17.6 °F 16.0 °F 66% 30.12 in 10.0 mi SW 8.1 mph - N/A   Clear
2:53 AM 26.1 °F 16.2 °F 15.1 °F 63% 30.12 in 10.0 mi SSW 10.4 mph - N/A   Clear
3:53 AM 28.0 °F 20.8 °F 16.0 °F 61% 30.10 in 10.0 mi South 6.9 mph - N/A   Clear
4:53 AM 30.0 °F 24.1 °F 14.0 °F 51% 30.09 in 10.0 mi SW 5.8 mph - N/A   Clear
5:53 AM 24.1 °F 17.0 °F 12.9 °F 62% 30.09 in 10.0 mi West 5.8 mph - N/A   Clear
6:53 AM 30.9 °F 20.2 °F 16.0 °F 54% 30.08 in 10.0 mi SSW 15.0 mph - N/A   Clear
7:53 AM 37.0 °F 29.3 °F 21.0 °F 52% 30.08 in 10.0 mi SW 11.5 mph - N/A   Clear
8:53 AM 41.0 °F 34.7 °F 26.1 °F 55% 30.09 in 10.0 mi WSW 10.4 mph - N/A   Clear
9:53 AM 44.1 °F 37.7 °F 28.9 °F 55% 30.09 in 10.0 mi WSW 12.7 mph - N/A   Clear
10:53 AM 46.0 °F 39.9 °F 30.0 °F 54% 30.09 in 10.0 mi West 13.8 mph 24.2 mph N/A   Clear
11:53 AM 46.0 °F 39.6 °F 30.0 °F 54% 30.07 in 10.0 mi West 15.0 mph - N/A   Clear
12:53 PM 46.0 °F 39.3 °F 30.0 °F 54% 30.06 in 10.0 mi West 16.1 mph - N/A   Clear
1:53 PM 46.9 °F - 30.9 °F 54% 30.05 in 10.0 mi West 13.8 mph - N/A   Clear
2:53 PM 48.0 °F - 32.0 °F 54% 30.05 in 10.0 mi WSW 11.5 mph - N/A   Clear
3:53 PM 48.0 °F - 33.1 °F 56% 30.07 in 10.0 mi WSW 10.4 mph - N/A   Clear
4:53 PM 48.9 °F - 33.1 °F 54% 30.08 in 10.0 mi SW 6.9 mph - N/A   Clear
5:53 PM 46.0 °F 41.4 °F 34.0 °F 63% 30.10 in 10.0 mi SSW 9.2 mph - N/A   Clear
6:53 PM 43.0 °F 37.2 °F 33.1 °F 68% 30.10 in 10.0 mi SSW 10.4 mph - N/A   Clear
7:53 PM 45.0 °F 40.1 °F 33.1 °F 63% 30.10 in 10.0 mi SSW 9.2 mph - N/A   Clear
8:53 PM 45.0 °F 39.7 °F 30.9 °F 58% 30.09 in 10.0 mi SSW 10.4 mph - N/A   Clear
9:53 PM 42.1 °F 36.6 °F 28.9 °F 60% 30.09 in 10.0 mi SSW 9.2 mph - N/A   Clear
10:53 PM 43.0 °F 41.3 °F 28.0 °F 56% 30.08 in 10.0 mi Variable 3.5 mph - N/A   Clear
11:53 PM 42.1 °F 35.7 °F 28.0 °F 58% 30.08 in 10.0 mi SSW 11.5 mph - N/A   Clear